This is the latest recevied weather packets stored in our database for station/object N3WMC. If no packets are shown the sender has not sent any weather packets the latest 10 day(s).
| Time | Temp. | Humidity | Pressure | Rain* | Wind** | Luminosity | Snow |
|---|---|---|---|---|---|---|---|
| 1778203770 | 10.56° C | 55% | 1013.5 hPa | 0 mm | - | 0 W/m² | - |
| 1778203466 | 11.11° C | 53% | 1013.6 hPa | 0 mm | - | 0 W/m² | - |
| 1778203164 | 11.11° C | 53% | 1013.5 hPa | 0 mm | - | 0 W/m² | - |
| 1778202862 | 11.11° C | 51% | 1013.4 hPa | 0 mm | - | 0 W/m² | - |
| 1778202559 | 11.11° C | 51% | 1013.5 hPa | 0 mm | - | 0 W/m² | - |
| 1778202256 | 11.67° C | 50% | 1013.1 hPa | 0 mm | - | 0 W/m² | - |
| 1778201953 | 11.67° C | 49% | 1013 hPa | 0 mm | - | 0 W/m² | - |
| 1778201650 | 11.67° C | 48% | 1013 hPa | 0 mm | - | 0 W/m² | - |
| 1778201346 | 12.22° C | 46% | 1012.9 hPa | 0 mm | - | 0 W/m² | - |
| 1778201042 | 12.22° C | 45% | 1012.9 hPa | 0 mm | - | 0 W/m² | - |
| 1778200739 | 12.22° C | 45% | 1012.6 hPa | 0 mm | - | 0 W/m² | - |
| 1778200436 | 12.78° C | 44% | 1012.9 hPa | 0 mm | - | 0 W/m² | - |
| 1778200133 | 12.78° C | 44% | 1012.5 hPa | 0 mm | - | 1 W/m² | - |
| 1778199830 | 12.78° C | 43% | 1012.2 hPa | 0 mm | - | 2 W/m² | - |
| 1778199526 | 12.78° C | 42% | 1012.2 hPa | 0 mm | - | 3 W/m² | - |
| 1778199222 | 13.33° C | 42% | 1011.9 hPa | 0 mm | - | 6 W/m² | - |
| 1778198919 | 13.33° C | 41% | 1012.3 hPa | 0 mm | - | 7 W/m² | - |
| 1778198615 | 13.33° C | 41% | 1012 hPa | 0 mm | - | 8 W/m² | - |
| 1778198311 | 13.33° C | 40% | 1011.9 hPa | 0 mm | - | 12 W/m² | - |
| 1778198009 | 13.89° C | 40% | 1011.9 hPa | 0 mm | - | 18 W/m² | - |
| 1778197706 | 13.89° C | 39% | 1011.9 hPa | 0 mm | - | 19 W/m² | - |
| 1778197403 | 13.89° C | 39% | 1011.8 hPa | 0 mm | - | 23 W/m² | - |
| 1778197099 | 13.89° C | 39% | 1011.8 hPa | 0 mm | - | 24 W/m² | - |
| 1778196797 | 13.89° C | 39% | 1011.7 hPa | 0 mm | - | 25 W/m² | - |
| 1778196495 | 13.89° C | 38% | 1011.7 hPa | 0 mm | - | 30 W/m² | - |
* Rain latest hour (hover to see other rain measurements)
** Current wind speed in m/s (hover to see current wind gust speed)